User: anonymous   Login
Location: Eppenbrunn
(49.1158°N, 7.5601°E)
Time: 18:00:32
(UTC+00:00)
Language:

Cosmos 2233 Rocket - Orbit

View from above orbital plane
View from above orbital plane
View from above satellite
View from above satellite

Ground track
Ground track

The orbit data is extracted from the following two-line orbital elements,

1 22488U 93008B   20184.86993685 -.00000035 +00000-0 -50488-4 0  9992
2 22488 082.9426 331.1235 0025147 352.8643 116.2329 13.77706963377049
Epoch (UTC): 02 July 2020 20:52:42
Eccentricity: 0.0025147
inclination: 82.9426°
perigee height: 953 km
apogee height: 990 km
right ascension of ascending node: 331.1235°
argument of perigee: 352.8643°
revolutions per day: 13.77706963
mean anomaly at epoch: 116.2329°
orbit number at epoch: 37704

The dashed part of the orbit path shows where the satellite is in the earth's shadow,  

DLR